[[{"header":{"parameterUnit":"m.s-1","parameterCategory":1,"la1":30.2991,"la2":30.254,"lo1":-89.0895,"lo2":-89.0444,"dy":0.0017,"dx":0.0017,"nx":28,"ny":28,"refTime":"2025-03-27T09:00:00:Z","depth":0,"parameterNumber":2,"parameterNumberName":"U-component_of_WINDS"},"data":[0,0,0,0,0,0,0,0,0,0,0,0,0,0,0,0,0,0,0,0,0,0,0,0,0,0,0,0,0,0,0,0,0,0,0,0,0,0,0,0,0,0,0,0,0,0,0,0,0,0,0,0,0,0,0,0,0,0,-5.6602,-5.6604,0,-5.6768,-5.677,-5.6772,-5.6735,-5.6732,-5.6729,-5.6726,-5.6899,-5.6906,-5.6913,0,0,0,0,0,0,0,0,0,0,0,0,0,-5.6256,-5.6263,-5.6602,-5.6604,-5.6606,-5.6767,-5.677,-5.6772,-5.6736,-5.6732,-5.6728,-5.6725,-5.6896,-5.6905,-5.6914,0,0,0,0,0,0,0,0,0,0,0,0,0,-5.6413,-5.6265,-5.6601,-5.6607,-5.6609,-5.6767,-5.677,-5.6773,-5.6737,-5.6732,-5.6727,-5.6723,-5.6893,-5.6904,-5.6915,-5.7078,0,0,-5.695,-5.6955,0,0,0,0,0,0,0,0,-5.6404,-5.6426,-5.6604,-5.6607,-5.661,-5.6726,-5.6711,-5.6875,-5.6738,-5.6688,-5.6726,-5.6721,-5.6845,-5.686,-5.6902,-5.7086,-5.7094,-5.6951,-5.6958,-5.6962,-5.6966,0,0,0,0,0,0,0,-5.6393,-5.6418,-5.6667,-5.6607,-5.661,-5.6603,-5.662,-5.6742,-5.6791,-5.6692,-5.669,-5.671,-5.6846,-5.6891,-5.6905,-5.7096,-5.695,-5.696,-5.6967,-5.6972,-5.7424,-5.7429,0,0,0,0,0,0,-5.638,-5.6409,-5.6662,-5.6672,-5.6493,-5.6613,-5.6632,-5.6693,-5.679,-5.68,-5.6714,-5.6708,-5.6874,-5.6892,-5.6911,-5.7108,-5.6962,-5.6973,-5.6979,-5.7419,-5.7425,-5.7431,0,0,0,0,0,0,-5.6372,-5.6402,-5.6655,-5.654,-5.6572,-5.6623,-5.6693,-5.6699,-5.6744,-5.6806,-5.6815,-5.6751,-5.6871,-5.6895,-5.7037,-5.7113,-5.6978,-5.6988,-5.7412,-5.7421,-5.7428,-5.7502,0,0,0,0,0,0,-5.6363,-5.64,-5.6461,-5.6542,-5.6578,-5.6777,-5.6698,-5.6706,-5.6763,-5.6757,-5.6843,-5.6852,-5.6869,-5.702,-5.7048,-5.7126,-5.6997,-5.7406,-5.7416,-5.7425,-5.7493,-5.7512,-5.7528,0,0,0,0,0,-5.635,-5.6476,-5.6465,-5.6495,-5.6656,-5.6782,-5.6803,-5.6818,-5.6769,-5.6832,-5.6872,-5.685,-5.7101,-5.7035,-5.7066,-5.7149,-5.7401,-5.7413,-5.7425,-5.7486,-5.7508,-5.7527,0,0,0,0,0,0,-5.6404,-5.6487,-5.6475,-5.6631,-5.6699,-5.6775,-5.6854,-5.6842,-5.6927,-5.6917,-5.6934,-5.6954,-5.7098,-5.7138,-5.7063,-5.7312,-5.7244,-5.7263,-5.728,-5.7302,-5.7319,-5.7305,-5.7006,0,0,0,0,0,-5.6434,-5.6528,-5.6596,-5.6727,-5.6762,-5.6803,-5.6858,-5.6865,-5.6937,-5.6966,-5.7016,-5.7088,-5.7183,-5.7245,-5.7336,-5.75,-5.7518,-5.7573,-5.759,-5.7603,-5.7619,-5.7708,-5.7733,-5.747,-5.747,-5.7469,0,0,-5.6497,-5.6554,-5.6612,-5.6739,-5.6793,-5.6891,-5.6827,-5.6934,-5.7007,-5.6982,-5.7118,-5.7158,-5.724,-5.7393,-5.7463,-5.743,-5.7696,-5.7619,-5.7629,-5.7637,-5.7723,-5.7748,-5.777,-5.7478,-5.7476,-5.7475,0,0,-5.666,-5.6713,-5.6828,-5.6883,-5.6966,-5.6992,-5.702,-5.7099,-5.7124,-5.7261,-5.7244,-5.7333,-5.7496,-5.7555,-5.7606,-5.7794,-5.7777,-5.7824,-5.7913,-5.8,-5.8021,-5.8039,-5.8105,-5.8129,-5.7839,-5.784,-5.784,0,-5.6727,-5.6873,-5.6888,-5.6996,-5.7053,-5.7036,-5.7152,-5.7206,-5.7314,-5.7354,-5.7317,-5.7522,-5.7576,-5.7742,-5.7788,-5.7831,-5.7863,-5.7813,-5.8016,-5.8035,-5.8052,-5.8115,-5.814,-5.7845,-5.7844,-5.7843,-5.7843,0,-5.6952,-5.7054,-5.7136,-5.724,-5.7307,-5.7419,-5.7452,-5.7518,-5.7519,-5.755,-5.769,-5.7755,-5.7858,-5.7899,-5.7902,-5.8067,-5.8044,-5.8012,-5.7943,-5.8082,-5.8142,-5.8166,-5.7852,-5.785,-5.7848,-5.7847,0,0,-5.7151,-5.7263,-5.7293,-5.734,-5.7431,-5.751,-5.7623,-5.7723,-5.7779,-5.7856,-5.7949,-5.8089,-5.806,-5.8118,-5.8128,-5.8205,-5.8349,-5.8163,-5.8166,-5.8194,-5.8534,-5.8556,-5.8584,-5.8339,-5.8344,-5.8348,-5.8526,0,-5.7321,-5.7517,-5.7535,-5.771,-5.7805,-5.7791,-5.7888,-5.7955,-5.7988,-5.8074,-5.8111,-5.8209,-5.8163,-5.8198,-5.8274,-5.8315,-5.8417,-5.8303,-5.8427,-5.8431,-5.8404,-5.8615,-5.8639,-5.8804,-5.855,-5.8554,-5.8557,0,-5.7545,-5.7627,-5.7812,-5.789,-5.7931,-5.8018,-5.8112,-5.8194,-5.827,-5.8289,-5.8355,-5.8355,-5.8471,-5.8401,-5.8561,-5.8483,-5.8536,-5.8564,-5.8571,-5.8581,-5.85,-5.8629,-5.8857,-5.8881,-5.8594,-5.8591,-5.8588,0,-5.767,-5.7827,-5.7958,-5.7999,-5.8094,-5.8155,-5.8198,-5.827,-5.8329,-5.8413,-5.8452,-5.8548,-5.86,-5.8675,-5.8702,-5.8648,-5.8861,-5.8793,-5.888,-5.8879,-5.8923,-5.8919,-5.916,-5.8961,-5.896,-5.896,-5.8959,0,-5.7857,-5.797,-5.8015,-5.8095,-5.8222,-5.8243,-5.8369,-5.8408,-5.8473,-5.8561,-5.8557,-5.864,-5.8671,-5.876,-5.8782,-5.8912,-5.8936,-5.8954,-5.8958,-5.8953,-5.8951,-5.8986,-5.8974,-5.8966,-5.8965,-5.8964,-5.8962,0,-5.8016,-5.8051,-5.8192,-5.8271,-5.8293,-5.8383,-5.8451,-5.8529,-5.8562,-5.8674,-5.8701,-5.8753,-5.8857,-5.8892,-5.9019,-5.9034,-5.9184,-5.9179,-5.9158,-5.9158,-5.9242,-5.9233,-5.9512,-5.9549,-5.9327,-5.9329,-5.9331,0,-5.8131,-5.8218,-5.8306,-5.8365,-5.8409,-5.8504,-5.8565,-5.859,-5.8654,-5.8748,-5.8815,-5.8919,-5.9002,-5.9171,-5.922,-5.9317,-5.9314,-5.9405,-5.9328,-5.932,-5.9313,-5.9306,-5.9315,-5.9418,-5.9421,-5.9423,-5.9424,0,-5.8333,-5.8346,-5.8433,-5.8527,-5.86,-5.8675,-5.8748,-5.8797,-5.8833,-5.8905,-5.9012,-5.9077,-5.9207,-5.931,-5.9409,-5.9454,-5.9446,-5.9449,-5.9473,-5.9468,-5.9451,-5.946,-5.9194,-5.9441,-5.9439,-5.9438,-5.9437,-5.9437,-5.8472,-5.8549,-5.8622,-5.872,-5.8778,-5.8847,-5.8924,-5.8966,-5.9055,-5.9161,-5.9172,-5.9286,-5.9362,-5.9495,-5.9546,-5.9636,-5.9611,-5.9647,-5.9656,-5.9664,-5.967,-5.9439,-5.9655,-5.9655,-5.9654,-5.9654,-5.9654,0,-5.8671,-5.8719,-5.8809,-5.891,-5.8988,-5.8973,-5.9054,-5.912,-5.922,-5.9292,-5.9374,-5.9497,-5.9598,-5.9655,-5.9756,-5.9818,-5.9817,-5.9843,-5.9838,-5.9848,-5.9688,-5.9655,-5.9843,-5.9843,-5.9843,-5.9843,-5.9843,-5.9843,-5.8784,-5.8912,-5.8934,-5.9092,-5.9139,-5.925,-5.9297,-5.9361,-5.9418,-5.9555,-5.9638,-5.9675,-5.9741,-5.9847,-5.9939,-5.9954,-5.999,-6.0019,-6.0031,-5.9879,-5.986,-5.9841,-5.981,-6.0028,-6.0028,-6.0184,-6.0185,-6.0186]},{"header":{"parameterUnit":"m.s-1","parameterCategory":1,"la1":30.2991,"la2":30.254,"lo1":-89.0895,"lo2":-89.0444,"dy":0.0017,"dx":0.0017,"nx":28,"ny":28,"refTime":"2025-03-27T09:00:00:Z","depth":0,"parameterNumber":3,"parameterNumberName":"V-component_of_WINDS"},"data":[0,0,0,0,0,0,0,0,0,0,0,0,0,0,0,0,0,0,0,0,0,0,0,0,0,0,0,0,0,0,0,0,0,0,0,0,0,0,0,0,0,0,0,0,0,0,0,0,0,0,0,0,0,0,0,0,0,0,2.8501,2.8502,0,2.86,2.8601,2.8602,2.8605,2.8604,2.8603,2.8601,2.8701,2.8704,2.8708,0,0,0,0,0,0,0,0,0,0,0,0,0,2.8312,2.8316,2.8501,2.8502,2.8503,2.86,2.8601,2.8603,2.8605,2.8604,2.8602,2.8601,2.8699,2.8704,2.8708,0,0,0,0,0,0,0,0,0,0,0,0,0,2.8401,2.8317,2.85,2.8516,2.8519,2.86,2.8601,2.8603,2.8606,2.8604,2.8602,2.86,2.8698,2.8703,2.8709,2.878,0,0,2.8726,2.8729,0,0,0,0,0,0,0,0,2.8396,2.8408,2.8513,2.8515,2.8518,2.8588,2.8571,2.8662,2.8606,2.8573,2.8601,2.8599,2.8665,2.8673,2.8695,2.8785,2.8789,2.8727,2.873,2.8733,2.8734,0,0,0,0,0,0,0,2.839,2.8404,2.854,2.8514,2.8518,2.8518,2.8529,2.8588,2.8627,2.8575,2.8576,2.8588,2.8666,2.869,2.8698,2.879,2.8727,2.8732,2.8735,2.8737,2.8945,2.8947,0,0,0,0,0,0,2.8381,2.8398,2.8537,2.8543,2.8451,2.8523,2.8535,2.8568,2.8627,2.8634,2.8589,2.8587,2.8681,2.8691,2.8701,2.879,2.8733,2.8738,2.8741,2.8943,2.8945,2.8948,0,0,0,0,0,0,2.8377,2.8393,2.8533,2.8471,2.8489,2.8528,2.8565,2.8571,2.8595,2.8637,2.8644,2.8607,2.868,2.8693,2.8761,2.8793,2.874,2.8746,2.894,2.8944,2.8947,2.8966,0,0,0,0,0,0,2.8371,2.8392,2.8419,2.8472,2.8492,2.8591,2.8567,2.8574,2.8605,2.8604,2.8656,2.8662,2.868,2.8753,2.8767,2.88,2.875,2.8938,2.8942,2.8946,2.8963,2.897,2.8976,0,0,0,0,0,2.8365,2.842,2.8421,2.8437,2.8528,2.8593,2.8605,2.8624,2.8607,2.8635,2.8663,2.8661,2.8787,2.876,2.8775,2.8811,2.8936,2.8941,2.8945,2.896,2.8968,2.8975,0,0,0,0,0,0,2.8369,2.8427,2.8428,2.8502,2.8543,2.8594,2.8629,2.8632,2.8678,2.8675,2.8696,2.8708,2.8776,2.88,2.8768,2.8884,2.8859,2.8868,2.8865,2.8874,2.888,2.8873,2.8755,0,0,0,0,0,2.8379,2.8428,2.8476,2.8536,2.8557,2.859,2.8619,2.8631,2.8673,2.869,2.8722,2.8763,2.8813,2.8844,2.8892,2.8966,2.8978,2.8999,2.9005,2.901,2.9017,2.906,2.907,2.8963,2.8963,2.8963,0,0,2.8399,2.8437,2.8466,2.8538,2.8571,2.8621,2.8604,2.8657,2.8695,2.8698,2.8765,2.879,2.8837,2.8909,2.8942,2.8931,2.9049,2.9016,2.902,2.9024,2.9066,2.9076,2.9084,2.8967,2.8966,2.8966,0,0,2.8462,2.8495,2.855,2.8584,2.8634,2.8656,2.867,2.872,2.8738,2.8805,2.8809,2.8853,2.8937,2.8971,2.8999,2.9077,2.9077,2.9092,2.9125,2.9166,2.9175,2.9182,2.9211,2.9221,2.9098,2.9099,2.9099,0,2.848,2.8557,2.8578,2.8632,2.8664,2.867,2.8727,2.8758,2.8821,2.8843,2.883,2.8936,2.8968,2.9049,2.9068,2.9091,2.9107,2.9086,2.9172,2.918,2.9187,2.9215,2.9225,2.91,2.91,2.91,2.91,0,2.8578,2.8631,2.8669,2.8732,2.8768,2.8822,2.8852,2.8886,2.8895,2.8918,2.8987,2.9026,2.9082,2.9102,2.911,2.9185,2.9176,2.9167,2.9144,2.9198,2.9225,2.9235,2.9102,2.9102,2.9101,2.9101,0,0,2.8645,2.872,2.8734,2.8763,2.882,2.8861,2.8917,2.8973,2.9002,2.9045,2.9093,2.9164,2.9157,2.9189,2.9202,2.9238,2.9299,2.9225,2.9226,2.9238,2.9384,2.9391,2.9403,2.9299,2.9301,2.9303,2.938,0,2.8715,2.8815,2.8836,2.8922,2.8972,2.898,2.9028,2.9068,2.9092,2.9137,2.9162,2.9214,2.9199,2.9219,2.9255,2.9284,2.9328,2.9278,2.9343,2.9345,2.9332,2.9416,2.9424,2.9495,2.9391,2.9392,2.9394,0,2.881,2.8857,2.8949,2.9001,2.9023,2.9066,2.912,2.9163,2.9209,2.9224,2.9261,2.927,2.9328,2.9301,2.9382,2.9347,2.9375,2.9393,2.9396,2.9403,2.9373,2.9426,2.9518,2.9529,2.941,2.9409,2.9407,0,2.8851,2.8938,2.9004,2.9029,2.9091,2.9121,2.9149,2.9193,2.9226,2.9273,2.9295,2.9347,2.9376,2.9416,2.9439,2.9418,2.9519,2.9494,2.9533,2.9532,2.9554,2.9552,2.9652,2.9571,2.957,2.957,2.957,0,2.8927,2.8983,2.9024,2.9065,2.9128,2.9152,2.9214,2.924,2.928,2.9326,2.9335,2.9378,2.9406,2.9453,2.9471,2.9536,2.9548,2.9562,2.9566,2.9562,2.956,2.9581,2.9577,2.9573,2.9572,2.9572,2.9571,0,2.8984,2.9014,2.9087,2.9141,2.9155,2.92,2.9245,2.9285,2.9309,2.9368,2.9383,2.942,2.9476,2.9504,2.9572,2.9585,2.9658,2.9659,2.9643,2.9645,2.9683,2.9679,2.9799,2.9817,2.9723,2.9724,2.9725,0,2.9031,2.9075,2.9134,2.9166,2.9194,2.9246,2.928,2.9305,2.934,2.9397,2.943,2.9487,2.9534,2.9623,2.9656,2.9709,2.9712,2.975,2.9719,2.9714,2.9713,2.9711,2.9716,2.9756,2.9756,2.9757,2.9758,0,2.9112,2.9125,2.9174,2.923,2.9271,2.9315,2.9359,2.9384,2.9417,2.9456,2.9514,2.955,2.9622,2.9678,2.9734,2.9761,2.9765,2.9767,2.9779,2.9775,2.9765,2.9772,2.9659,2.9764,2.9764,2.9763,2.9763,2.9763,2.9166,2.9206,2.9254,2.9309,2.9345,2.9386,2.9427,2.9457,2.9506,2.9567,2.9579,2.9641,2.9687,2.9762,2.9792,2.984,2.9832,2.9849,2.9853,2.9857,2.986,2.9757,2.985,2.985,2.985,2.985,2.985,0,2.9248,2.928,2.9331,2.9392,2.9436,2.9437,2.9486,2.9522,2.9577,2.962,2.9666,2.9734,2.9789,2.9827,2.9883,2.9915,2.9918,2.9928,2.9927,2.9933,2.9864,2.9848,2.9925,2.9925,2.9925,2.9925,2.9925,2.9925,2.9296,2.9364,2.9383,2.9469,2.95,2.9562,2.959,2.9628,2.9662,2.9738,2.9784,2.9809,2.985,2.991,2.996,2.997,2.999,3.0001,3.0011,2.9946,2.9938,2.993,2.9916,3.0005,3.0006,3.0077,3.0077,3.0078]}]]